Terminal Aerodrome Forecast
Issued by NWS Wilmington, OH

Current Version | Previous Version | Text Only | Print | Product List | Glossary Off
Versions: 1 2 3 4 5 6 7 8 9 10 11 12 13 14 15 16 17

000
FTUS41 KILN 270500
TAFCMH
TAF
KCMH 270534Z 2706/2806 20012KT P6SM FEW015 BKN250
     FM270900 20008KT P6SM BKN008
     FM271500 21010KT P6SM SCT030
     FM272000 23014G24KT P6SM VCTS BKN035CB
     FM280000 24012KT P6SM FEW040 BKN100
     FM280500 26006KT P6SM FEW050=

USA.gov is the U.S. government's official web portal to all federal, state and local government web resources and services.